Wind_Speed
8 12 14 15 11 11 11 12 17 16 17 20 22 28 21 23 23 23 23 22 20 22 25 29 32 29 32 38 41 38 37 35 34 33 34 36 34 31 33 34 34 33 34 36
13 12 11 13 13 12 17 17 17 21 24 28 27 27 24 23 20 25 29 29 29 28 30 33 35 38 38 37 36 36 32 32 33 34 31 31 31 31 33 38 39 38 39 41
15 16 15 14 14 17 21 24 26 27 29 30 29 28 30 28 26 31 34 32 31 30 31 32 34 35 33 31 30 31 30 31 31 30 31 33 33 33 31 33 36 37 37 39
20 20 19 19 21 23 25 24 26 28 32 33 34 34 32 31 33 35 34 33 34 33 32 33 35 34 31 29 30 31 32 32 30 31 33 34 35 35 36 34 35 38 40 34
26 25 24 25 24 26 28 31 34 39 39 38 39 35 38 40 35 36 35 36 37 36 35 35 36 35 33 33 32 32 33 33 32 32 31 31 33 35 33 38 42 44 42 44
29 28 28 29 30 31 33 36 38 38 39 38 38 39 38 38 43 40 37 39 40 40 41 40 39 36 36 36 34 33 35 35 34 34 32 32 32 33 33 35 38 45 41 41
29 30 32 34 34 34 35 35 34 37 37 37 36 36 37 42 43 40 39 40 38 36 36 36 37 39 39 39 39 38 38 37 36 34 35 35 34 33 34 36 39 42 48 47
34 35 36 35 36 37 34 32 30 32 30 33 41 42 40 42 44 44 42 41 41 39 37 36 37 36 35 35 37 40 38 36 34 35 36 36 37 38 38 41 42 44 47 47
39 38 37 38 40 40 40 40 37 38 39 34 38 43 42 44 46 48 48 47 46 42 39 37 38 39 38 38 40 39 37 37 38 36 37 39 40 42 42 45 46 50 49 49
44 43 42 43 43 42 43 42 43 42 42 38 43 42 43 47 48 48 49 48 46 43 40 39 40 41 41 40 39 40 40 41 41 41 42 42 43 46 45 46 48 49 53 51
47 47 47 47 47 46 46 47 50 48 45 45 49 48 47 47 45 45 47 49 49 47 44 43 42 43 44 45 45 44 43 45 46 47 47 48 48 50 48 49 50 51 54 55
48 50 50 48 47 48 49 50 51 52 51 49 49 52 48 45 45 46 49 49 48 47 46 43 43 46 48 49 49 48 48 49 49 50 51 49 48 51 50 49 47 51 53 55
51 53 53 50 51 51 52 51 51 51 53 55 55 55 50 46 45 46 46 47 48 48 47 45 46 48 50 52 52 51 52 54 53 53 54 54 53 52 53 52 51 50 52 55
53 52 54 56 55 52 50 52 53 56 58 58 55 48 50 48 46 45 45 47 48 49 47 47 46 47 50 52 53 53 53 55 55 55 57 57 57 54 53 54 53 53 52 58
54 53 52 52 54 55 58 57 54 55 55 52 51 47 47 47 48 49 50 51 51 52 52 51 49 48 50 51 53 53 53 54 54 55 56 56 56 57 56 55 56 56 53 52
53 52 52 57 55 57 60 58 56 53 53 51 47 44 45 44 46 48 50 53 55 56 56 56 55 52 51 51 54 55 55 55 56 57 57 58 58 59 58 56 57 58 55 47
53 55 57 58 55 52 57 54 55 50 48 45 43 44 42 43 46 49 51 53 55 56 58 59 58 57 57 57 59 60 60 61 61 61 60 60 60 59 59 59 57 55 53 47
56 56 54 54 55 51 53 55 51 46 46 46 45 45 47 47 48 51 54 56 59 61 63 64 65 66 65 66 68 68 68 68 67 67 66 66 65 63 60 56 56 52 50 42
55 57 56 55 55 51 47 47 46 45 46 50 49 50 52 54 56 60 60 61 64 66 70 73 75 77 77 76 76 75 73 73 72 71 68 66 63 60 56 51 50 48 45 40
57 58 57 55 52 47 44 46 46 45 46 48 51 53 56 58 59 62 64 68 72 77 82 84 87 83 79 78 75 74 71 70 69 69 66 64 62 57 52 48 46 45 42 40
58 57 55 52 51 46 43 44 45 46 47 51 54 57 59 61 64 67 70 75 79 84 86 83 81 80 81 81 76 74 72 70 68 65 62 60 59 55 48 46 44 44 40 38
57 55 52 49 47 44 45 47 49 51 54 55 56 58 61 64 69 73 78 81 85 80 81 77 79 80 80 81 81 79 80 76 72 67 63 57 54 52 47 44 44 42 38 40
50 51 50 49 48 49 50 52 56 58 59 60 61 64 68 72 75 79 81 77 79 76 74 76 79 81 82 91 84 71 63 55 58 59 58 56 48 47 46 42 41 38 33 34
48 50 49 50 54 57 58 60 59 61 63 65 69 73 77 79 80 75 76 75 75 74 77 78 79 86 77 70 69 68 66 60 57 50 48 44 45 40 40 38 37 35 34 38
49 49 51 53 59 59 64 63 64 67 70 73 75 79 74 73 76 74 75 75 75 76 77 84 82 63 65 70 69 72 69 61 58 48 33 35 36 30 33 30 31 31 34 34
54 54 54 57 61 61 64 68 71 75 78 80 79 75 77 74 75 74 72 72 74 76 80 66 55 59 59 59 56 47 35 22 34 42 45 37 31 30 24 24 25 24 22 22
Wind_Direction
213 240 254 266 281 289 302 318 326 331 340 339 330 328 330 339 340 342 342 333 315 298 292 288 292 290 284 283 286 292 299 299 296 295 289 285 276 284 285 280 276 273 272 270
238 269 292 294 288 294 289 322 318 327 327 328 325 323 319 321 316 326 331 323 319 311 299 294 293 298 303 302 299 301 299 291 290 293 295 297 290 283 279 278 281 282 279 273
254 270 282 282 288 292 297 308 311 314 316 317 317 319 321 318 311 315 319 318 315 310 305 302 301 302 304 304 304 302 301 300 300 296 293 291 293 294 285 276 275 275 283 282
253 258 263 271 273 278 298 308 310 315 318 316 316 316 315 308 310 314 315 313 311 310 309 306 306 304 303 304 305 305 304 303 299 297 296 294 292 292 289 287 281 273 274 275
259 260 262 265 277 290 298 301 304 307 308 309 308 313 309 310 312 316 315 314 311 310 310 307 302 300 303 305 302 300 297 293 292 293 291 290 287 284 286 282 280 275 271 271
263 266 270 278 286 290 295 299 301 307 310 309 310 311 311 307 312 314 314 314 314 313 311 308 307 305 301 297 296 295 294 295 296 294 291 288 287 284 282 279 282 276 271 277
272 273 275 280 284 289 291 297 307 305 304 307 307 311 309 306 306 307 310 311 309 304 300 299 299 298 298 298 300 302 300 300 297 295 295 293 290 289 286 280 280 279 278 283
271 273 278 286 290 293 296 296 301 311 305 309 309 311 308 303 303 305 307 306 303 299 291 288 290 289 289 288 291 295 292 290 288 288 287 287 285 285 283 284 283 282 282 280
277 283 289 291 292 293 294 297 293 304 305 305 308 306 303 303 305 305 304 303 300 296 293 294 294 295 292 291 288 285 285 287 286 285 288 290 290 288 288 285 283 285 283 285
282 284 287 292 293 293 293 294 295 297 298 297 305 303 302 301 302 301 301 299 296 295 292 291 290 290 290 288 285 286 287 288 289 289 289 293 295 292 293 294 292 287 285 284
281 284 288 291 291 292 294 294 295 294 295 293 301 299 298 297 295 291 289 288 288 289 289 289 290 291 290 290 289 287 288 288 288 287 287 291 293 293 294 294 294 289 285 282
284 286 287 290 292 292 291 293 294 295 296 297 298 296 295 292 289 287 287 286 286 285 284 286 290 290 290 288 286 286 286 286 284 285 286 287 288 290 291 295 295 295 287 286
281 283 285 285 289 291 293 293 293 297 299 297 295 294 292 289 285 285 282 282 283 283 285 285 286 288 288 287 287 285 285 284 284 285 287 288 289 289 292 295 294 297 295 298
281 284 287 290 292 291 292 292 295 295 293 294 294 294 292 290 289 284 283 284 285 284 285 285 285 287 288 287 287 288 287 287 287 287 287 287 290 292 297 298 299 300 303 302
280 283 285 287 290 292 291 292 292 291 291 291 291 293 292 293 293 295 296 295 293 292 292 292 292 291 289 287 288 287 286 286 287 287 288 292 297 297 297 300 301 301 305 305
282 284 285 286 288 289 289 293 295 294 293 292 292 289 289 291 292 291 289 289 289 290 291 291 291 290 288 287 288 287 287 287 289 292 295 296 297 299 300 303 304 306 308 305
278 279 282 284 288 290 292 293 293 294 294 294 291 290 293 292 290 290 290 290 292 293 293 294 295 295 294 293 293 292 292 293 293 294 294 294 296 297 299 301 302 304 304 303
276 279 281 286 290 295 293 294 295 294 294 292 294 295 291 289 289 289 290 292 293 296 298 300 300 299 298 298 297 295 293 292 291 291 292 294 295 296 298 301 302 302 300 297
279 282 284 287 288 290 288 290 291 294 294 296 296 294 296 296 297 296 298 298 298 299 300 299 298 298 296 293 292 291 290 290 289 289 290 291 292 294 297 299 297 296 293 293
279 282 285 287 288 286 286 287 288 288 290 289 291 293 293 293 294 296 298 298 299 300 301 301 301 300 297 295 295 293 290 288 288 287 288 289 290 292 294 296 293 292 287 289
281 282 284 285 286 287 288 283 283 284 284 286 289 291 293 294 295 296 297 298 300 301 301 301 300 297 296 298 295 293 291 290 287 285 285 286 287 288 289 291 287 288 282 286
282 284 283 285 286 285 283 285 286 288 292 293 294 294 295 296 297 299 300 300 300 299 299 298 298 298 298 296 295 292 289 287 283 283 283 282 282 283 284 285 283 283 280 283
281 283 285 290 291 291 293 295 297 299 299 297 297 297 298 297 297 298 297 297 297 298 297 297 298 299 298 298 295 292 290 288 283 276 274 275 276 277 277 279 281 278 278 285
281 283 289 292 292 292 295 297 297 297 298 299 300 301 300 299 299 300 300 300 300 299 299 300 303 302 298 294 291 286 286 284 286 284 268 266 266 272 272 275 275 276 271 289
280 283 286 288 288 293 295 297 300 300 301 300 301 302 300 301 301 301 301 301 300 302 303 306 306 300 298 295 288 283 286 281 274 270 260 260 258 260 267 268 267 278 277 283
283 285 289 289 291 293 296 298 300 301 302 301 300 301 302 302 302 302 303 304 305 304 305 307 304 307 308 304 301 294 295 313 304 268 241 253 246 254 256 260 272 277 280 268
Height
11031 11032 11033 11033 11034 11034 11032 11033 11033 11032 11031 11028 11025 11022 11018 11015 11013 11012 11009 11008 11006 11005 11002 10999 10996 10995 10992 10989 10985 10983 10980 10979 10977 10974 10974 10974 10972 10968 10967 10967 10968 10969 10970 10970
11029 11030 11031 11031 11031 11032 11030 11031 11029 11027 11027 11025 11022 11020 11017 11016 11013 11010 11007 11005 11001 10999 10995 10992 10990 10987 10983 10980 10977 10975 10973 10970 10967 10965 10965 10964 10965 10965 10963 10960 10959 10958 10959 10959
11028 11029 11029 11030 11030 11029 11029 11028 11026 11024 11023 11021 11018 11016 11012 11009 11008 11005 11001 10998 10996 10994 10991 10987 10984 10981 10978 10974 10971 10968 10967 10964 10960 10958 10957 10955 10954 10954 10955 10955 10953 10950 10948 10948
11025 11027 11027 11027 11027 11027 11026 11023 11021 11019 11017 11015 11013 11010 11007 11004 11002 10997 10994 10992 10989 10988 10985 10981 10977 10974 10973 10969 10966 10963 10960 10958 10955 10953 10950 10947 10946 10945 10942 10943 10943 10942 10941 10940
11020 11023 11023 11022 11022 11021 11020 11018 11015 11013 11011 11008 11005 11003 11000 10997 10994 10992 10988 10984 10981 10980 10976 10974 10971 10968 10965 10962 10960 10958 10955 10952 10949 10947 10944 10941 10939 10938 10936 10933 10930 10930 10931 10930
11017 11017 11017 11016 11017 11017 11016 11014 11011 11007 11003 11001 10999 10997 10993 10989 10986 10985 10980 10977 10973 10969 10966 10964 10961 10958 10956 10954 10952 10951 10947 10943 10941 10939 10937 10935 10932 10931 10928 10926 10923 10920 10920 10920
11014 11014 11013 11011 11013 11013 11011 11010 11007 11005 11001 10998 10993 10992 10989 10983 10979 10978 10975 10971 10967 10965 10960 10956 10954 10951 10948 10945 10942 10940 10938 10935 10933 10930 10928 10926 10924 10921 10918 10917 10913 10911 10911 10911
11009 11009 11009 11009 11006 11005 11006 11005 11005 11002 10999 10994 10989 10985 10982 10976 10972 10969 10967 10965 10962 10958 10955 10952 10949 10947 10945 10942 10939 10934 10930 10928 10926 10923 10921 10918 10914 10911 10908 10905 10903 10900 10900 10899
11000 11002 11002 11002 11001 11000 10998 10998 10998 10996 10994 10992 10987 10981 10975 10969 10964 10959 10955 10954 10952 10950 10947 10943 10941 10937 10937 10934 10931 10927 10923 10920 10917 10914 10911 10908 10903 10899 10897 10894 10891 10888 10886 10885
10993 10995 10995 10994 10994 10993 10992 10990 10988 10988 10988 10985 10980 10976 10971 10963 10956 10950 10945 10942 10940 10938 10937 10936 10934 10931 10927 10924 10922 10917 10913 10909 10906 10902 10899 10896 10892 10887 10884 10881 10877 10875 10871 10869
10984 10986 10987 10986 10985 10985 10983 10981 10978 10977 10979 10977 10972 10965 10963 10957 10951 10945 10940 10934 10931 10929 10927 10926 10924 10920 10917 10914 10911 10907 10903 10898 10895 10892 10889 10886 10880 10875 10871 10867 10863 10860 10856 10852
10978 10978 10979 10977 10975 10975 10974 10971 10968 10965 10964 10963 10959 10952 10952 10946 10940 10935 10930 10925 10922 10921 10919 10917 10913 10910 10906 10903 10899 10896 10892 10889 10886 10881 10878 10875 10870 10864 10859 10855 10849 10843 10837 10836
10970 10968 10969 10971 10969 10965 10962 10959 10955 10953 10949 10946 10946 10939 10935 10933 10929 10925 10920 10916 10912 10910 10908 10906 10903 10899 10896 10891 10888 10885 10881 10877 10874 10869 10864 10860 10856 10852 10846 10841 10835 10830 10823 10815
10962 10961 10958 10955 10955 10954 10952 10948 10947 10944 10938 10935 10929 10926 10919 10916 10913 10910 10908 10905 10902 10899 10897 10894 10892 10889 10884 10879 10875 10873 10868 10863 10859 10855 10850 10846 10841 10837 10831 10825 10819 10813 10808 10798
10955 10954 10949 10946 10943 10942 10938 10938 10939 10934 10929 10923 10918 10913 10908 10904 10900 10896 10893 10889 10886 10883 10881 10880 10878 10876 10873 10868 10864 10860 10855 10851 10846 10841 10835 10830 10825 10820 10815 10810 10803 10797 10794 10784
10945 10943 10942 10936 10936 10934 10923 10925 10921 10919 10915 10911 10907 10902 10900 10898 10893 10888 10882 10877 10872 10869 10866 10864 10863 10863 10860 10855 10849 10844 10841 10836 10831 10826 10821 10815 10811 10804 10799 10795 10788 10781 10775 10771
10936 10934 10932 10926 10926 10925 10910 10915 10909 10907 10901 10899 10894 10890 10889 10885 10878 10873 10869 10864 10859 10855 10851 10848 10847 10845 10841 10838 10832 10827 10822 10817 10813 10809 10805 10799 10795 10791 10786 10781 10776 10770 10764 10758
10926 10923 10921 10919 10913 10913 10902 10898 10898 10896 10890 10885 10883 10879 10874 10871 10867 10860 10856 10852 10846 10841 10836 10832 10828 10825 10822 10818 10813 10808 10803 10798 10794 10790 10787 10784 10779 10775 10772 10767 10761 10755 10750 10748
10913 10910 10909 10906 10903 10902 10896 10891 10888 10886 10880 10873 10870 10865 10860 10855 10850 10843 10841 10835 10830 10826 10819 10814 10808 10804 10799 10796 10790 10785 10781 10777 10773 10769 10768 10765 10762 10759 10755 10752 10747 10743 10737 10735
10900 10896 10894 10892 10891 10890 10888 10882 10878 10875 10872 10865 10860 10855 10849 10843 10839 10832 10828 10821 10814 10808 10800 10793 10786 10777 10770 10766 10765 10760 10757 10754 10752 10748 10747 10745 10743 10742 10739 10737 10733 10730 10726 10724
10885 10884 10882 10879 10878 10877 10876 10871 10868 10865 10862 10855 10849 10844 10839 10833 10826 10820 10813 10805 10798 10789 10780 10770 10763 10753 10746 10741 10740 10736 10734 10732 10729 10727 10727 10727 10725 10724 10724 10722 10719 10716 10714 10712
10869 10869 10868 10868 10866 10866 10861 10858 10853 10850 10848 10844 10838 10831 10825 10818 10811 10803 10795 10786 10777 10769 10760 10751 10741 10732 10723 10715 10712 10710 10707 10708 10706 10706 10706 10707 10707 10707 10707 10707 10705 10703 10701 10699
10860 10856 10855 10854 10851 10847 10847 10843 10838 10834 10830 10824 10820 10814 10809 10802 10794 10786 10778 10768 10759 10750 10741 10732 10723 10713 10700 10690 10686 10682 10678 10680 10679 10681 10684 10687 10689 10690 10691 10691 10691 10691 10690 10688
10848 10845 10845 10843 10838 10834 10832 10828 10826 10821 10815 10808 10801 10794 10786 10778 10769 10762 10754 10746 10737 10728 10719 10712 10703 10692 10679 10668 10663 10659 10656 10660 10659 10659 10661 10667 10672 10676 10677 10678 10678 10679 10679 10677
10836 10836 10836 10833 10824 10824 10816 10813 10810 10803 10796 10790 10782 10773 10765 10757 10749 10741 10733 10724 10715 10708 10699 10688 10677 10668 10657 10646 10638 10630 10631 10635 10637 10643 10647 10652 10659 10663 10665 10669 10670 10668 10668 10666
10824 10824 10824 10819 10812 10811 10805 10797 10791 10783 10776 10768 10760 10751 10742 10736 10729 10721 10712 10704 10696 10687 10678 10668 10657 10647 10636 10624 10616 10614 10616 10619 10621 10620 10628 10641 10648 10652 10656 10659 10661 10660 10659 10658